Regional Weather Roundup
Issued by NWS Jackson, KY

Home | Current Version | Previous Version | Graphics & Text | Print | Product List | Glossary On
Versions: 1 2 3 4 5 6 7 8 9 10 11 12 13 14 15 16 17 18 19 20 21 22 23 24 25 26 27
000
ASUS43 KJKL 230510
RWRJKL

EAST KENTUCKY HOURLY WEATHER ROUNDUP
NATIONAL WEATHER SERVICE JACKSON KY
100 AM EDT FRI JUN 23 2017

NOTE: "FAIR" INDICATES FEW OR NO CLOUDS BELOW 12,000 FEET WITH
NO SIGNIFICANT WEATHER AND/OR OBSTRUCTIONS TO VISIBILITY.

* THESE REPORTS ARE NOT UNDER NWS QUALITY CONTROL AND MAY NOT
  REPORT WEATHER SUCH AS PRECIPITATION AND FOG.

KYZ079-080-083-085-087-088-110-112-115-119-120-230600
...EASTERN KENTUCKY...

CITY           SKY/WX    TMP DP  RH WIND       PRES   REMARKS
JACKSON        CLOUDY    70  67  90 CALM      29.96F
LONDON         MOCLDY    72  68  87 S9        29.96F
SOMERSET*      PTCLDY    70  70 100 S3        29.95F
MONTICELLO*    MOCLDY    75  71  87 VRB6      29.95F
WILLIAMSBURG*  MOCLDY    72  72 100 SE7       29.97F
MIDDLESBORO*   HVY RAIN  72  71  97 S6        30.00F
HARLAN APT*    CLOUDY    70  66  88 CALM      30.01F
PIKE CO APT*   MOCLDY    69  69 100 S6        29.98F
BIG SANDY APT* CLOUDY    71  70  95 S6        29.97F
MOREHEAD APT*  CLOUDY    70  68  94 S8        29.94F FOG
$$

KYZ035-036-041-042-044-050-067-078-099-230600
...CENTRAL KENTUCKY...

CITY           SKY/WX    TMP DP  RH WIND       PRES   REMARKS
MT STERLING*   CLOUDY    70  70 100 SW9       29.92F
FLEMING/MASON* CLOUDY    69  68  97 S6        29.91F
DANVILLE*      CLOUDY    72  70  94 SW7       29.93S
LEXINGTON      MOCLDY    72  69  90 S9        29.90F
FRANKFORT      MOCLDY    71  69  93 SE3       29.88F
LOUISVILLE     CLOUDY    75  72  90 S7        29.85F
LEBANON*       MOCLDY    73  73 100 S12       29.89F
GLASGOW*       CLOUDY    74  74 100 S7        29.89S
BOWLING GREEN  CLOUDY    78  74  87 S13       29.87F
$$

KYZ091>093-OHZ055-061-077-WVZ005-015-034-035-042-230600
...SOUTHERN OHIO/WEST VIRGINIA...

CITY           SKY/WX    TMP DP  RH WIND       PRES   REMARKS
COVINGTON      CLOUDY    71  70  96 S9        29.86F
COLUMBUS       CLOUDY    72  70  93 S9        29.88F
DAYTON         CLOUDY    71  67  87 S15       29.86F
WILMINGTON     LGT RAIN  69  69 100 S8        29.88F FOG
HUNTINGTON     CLOUDY    71  69  93 SE3       29.92F
CHARLESTON       N/A     70  68  93 SE3       29.95F
PINEVILLE*     DRIZZLE   69  67  93 MISG      30.08F
BECKLEY        CLOUDY    66  64  93 S10       30.06F
BLUEFIELD      LGT RAIN  66  63  90 S3        30.09F FOG
LOGAN CO APT*  CLOUDY    70  66  88 CALM      29.99F
$$

VAZ002-007-008-TNZ017-027-036-066-071-230600
...SOUTHWEST VIRGINIA/EAST TENNESSEE...

CITY           SKY/WX    TMP DP  RH WIND       PRES   REMARKS
WISE*          CLOUDY    70  70 100 S9G17     30.09S
JONESVILLE*    CLOUDY    72  70  94 CALM      30.04F
ABINGDON*      DRIZZLE   71  70  99 CALM      30.07F
BRISTOL        CLOUDY    72  69  90 SW5       30.05S
MORRISTOWN*    CLOUDY    72  72 100 CALM      30.01F
SEVIERVILLE*   CLOUDY    72  70  94 CALM      30.00F
KNOXVILLE      CLOUDY    72  70  93 CALM      29.99F
LAFOLLETTE*    CLOUDY    73  72  94 CALM      30.02F FOG
OAK RIDGE      LGT RAIN  74  71  91 CALM      30.01S
CROSSVILLE     CLOUDY    72  69  90 S5        30.02F
NASHVILLE      CLOUDY    77  73  87 S9        29.90S
$$

...KEY TO REMARKS...
VSB - VISIBILITY IN MILES
WCI - WIND CHILL INDEX
HX  - HEAT INDEX

$$




USA.gov is the U.S. government's official web portal to all federal, state and local government web resources and services.